When you browse on this site, cookies collect data to enhance your experience and personalize the content and advertising you see.
Visit our Privacy Policy to learn more. By continuing to use the site, you agree to this use of cookies and data.
  • en France
  • Liste des pays
  • À 7 jours
  • Température de l'eau
  • Carte satellitaire
  • Carte météo
  • Widgets météo
  • user-avatar
    Se connecter

    Météo par heure à Choumen

    Ce jour, 22 Mars, Vendredi

    Heure Température Précipitation Vent Pression Humidité
    00:00 +6°C° 0 mm 1 m/s 741 mmHg 70%
    01:00 +6°C° 0 mm 1 m/s 741 mmHg 71%
    02:00 +6°C° 0 mm 1 m/s 740 mmHg 70%
    03:00 +5°C° 0 mm 1 m/s 740 mmHg 71%
    04:00 +5°C° 0 mm 1 m/s 740 mmHg 73%
    05:00 +4°C° 0 mm 2 m/s 740 mmHg 74%
    06:00 +5°C° 0 mm 2 m/s 740 mmHg 72%
    07:00 +5°C° 0 mm 2 m/s 740 mmHg 70%
    08:00 +6°C° 0 mm 2 m/s 740 mmHg 68%
    09:00 +8°C° 0 mm 2 m/s 740 mmHg 62%
    10:00 +10°C° 0 mm 2 m/s 740 mmHg 56%
    11:00 +11°C° 0 mm 3 m/s 740 mmHg 49%
    12:00 +12°C° 0 mm 3 m/s 740 mmHg 47%
    13:00 +13°C° 0 mm 3 m/s 740 mmHg 45%
    14:00 +13°C° 0 mm 3 m/s 739 mmHg 42%
    15:00 +13°C° 0 mm 3 m/s 739 mmHg 43%
    16:00 +13°C° 0 mm 3 m/s 738 mmHg 44%
    17:00 +13°C° 0 mm 3 m/s 738 mmHg 44%
    18:00 +13°C° 0 mm 2 m/s 738 mmHg 49%
    19:00 +10°C° 0 mm 2 m/s 737 mmHg 53%
    20:00 +10°C° 0 mm 1 m/s 737 mmHg 58%
    21:00 +10°C° 0 mm 1 m/s 737 mmHg 59%
    22:00 +9°C° 0 mm 1 m/s 737 mmHg 61%
    23:00 +9°C° 0 mm 1 m/s 738 mmHg 63%

    Demain, 23 Mars, Samedi

    Heure Température Précipitation Vent Pression Humidité
    00:00 +8°C° 0 mm 1 m/s 737 mmHg 64%
    01:00 +7°C° 0 mm 2 m/s 737 mmHg 66%
    02:00 +7°C° 0 mm 2 m/s 737 mmHg 68%
    03:00 +7°C° 0 mm 2 m/s 737 mmHg 70%
    04:00 +7°C° 0 mm 2 m/s 737 mmHg 72%
    05:00 +8°C° 0 mm 1 m/s 737 mmHg 74%
    06:00 +7°C° 0 mm 2 m/s 737 mmHg 73%
    07:00 +8°C° 0 mm 2 m/s 737 mmHg 71%
    08:00 +9°C° 0 mm 3 m/s 737 mmHg 69%
    09:00 +9°C° 0 mm 3 m/s 737 mmHg 65%
    10:00 +9°C° 0 mm 3 m/s 737 mmHg 60%
    11:00 +10°C° 0 mm 3 m/s 737 mmHg 56%
    12:00 +10°C° 0 mm 4 m/s 737 mmHg 56%
    13:00 +10°C° 0 mm 4 m/s 736 mmHg 56%
    14:00 +10°C° 0 mm 4 m/s 736 mmHg 56%
    15:00 +10°C° 0 mm 4 m/s 736 mmHg 54%
    16:00 +9°C° 0 mm 3 m/s 736 mmHg 52%
    17:00 +9°C° 0 mm 3 m/s 736 mmHg 50%
    18:00 +8°C° 0 mm 3 m/s 736 mmHg 51%
    19:00 +7°C° 0 mm 2 m/s 736 mmHg 52%
    20:00 +7°C° 0 mm 1 m/s 736 mmHg 53%
    21:00 +7°C° 0 mm 1 m/s 736 mmHg 51%
    22:00 +6°C° 0 mm 1 m/s 736 mmHg 49%
    23:00 +5°C° 0 mm 1 m/s 737 mmHg 46%

    Après-demain, 24 Mars, Dimanche

    Heure Température Précipitation Vent Pression Humidité
    00:00 +5°C° 0 mm 1 m/s 736 mmHg 45%
    01:00 +4°C° 0 mm 1 m/s 736 mmHg 44%
    02:00 +4°C° 0 mm 1 m/s 736 mmHg 44%
    03:00 +3°C° 0 mm 1 m/s 736 mmHg 44%
    04:00 +3°C° 0 mm 1 m/s 736 mmHg 45%
    05:00 +3°C° 0 mm 1 m/s 735 mmHg 46%
    06:00 +4°C° 0 mm 1 m/s 736 mmHg 45%
    07:00 +5°C° 0 mm 1 m/s 736 mmHg 45%
    08:00 +6°C° 0 mm 1 m/s 736 mmHg 44%
    09:00 +6°C° 0 mm 2 m/s 736 mmHg 41%
    10:00 +8°C° 0 mm 2 m/s 736 mmHg 37%
    11:00 +10°C° 0 mm 3 m/s 736 mmHg 33%
    12:00 +10°C° 0 mm 3 m/s 736 mmHg 32%
    13:00 +11°C° 0 mm 3 m/s 735 mmHg 30%
    14:00 +12°C° 0 mm 4 m/s 735 mmHg 29%
    15:00 +12°C° 0 mm 3 m/s 735 mmHg 30%
    16:00 +12°C° 0 mm 3 m/s 734 mmHg 32%
    17:00 +12°C° 0 mm 3 m/s 734 mmHg 33%
    18:00 +10°C° 0 mm 2 m/s 734 mmHg 37%
    19:00 +9°C° 0 mm 1 m/s 734 mmHg 42%
    20:00 +7°C° 0 mm 0 m/s 734 mmHg 46%
    21:00 +6°C° 0 mm 0 m/s 734 mmHg 50%
    22:00 +7°C° 0 mm 1 m/s 733 mmHg 53%
    23:00 +6°C° 0 mm 1 m/s 733 mmHg 57%

    25 Mars, Lundi

    Heure Température Précipitation Vent Pression Humidité
    00:00 +6°C° 0 mm 1 m/s 733 mmHg 58%
    01:00 +6°C° 0 mm 1 m/s 733 mmHg 59%
    02:00 +5°C° 0 mm 1 m/s 732 mmHg 61%
    03:00 +5°C° 0 mm 1 m/s 732 mmHg 61%
    04:00 +5°C° 0 mm 1 m/s 732 mmHg 61%
    05:00 +5°C° 0 mm 1 m/s 731 mmHg 62%
    06:00 +6°C° 0 mm 1 m/s 731 mmHg 59%
    07:00 +7°C° 0 mm 1 m/s 731 mmHg 57%
    08:00 +8°C° 0 mm 1 m/s 731 mmHg 54%
    09:00 +10°C° 0 mm 2 m/s 731 mmHg 47%
    10:00 +13°C° 0 mm 2 m/s 731 mmHg 41%
    11:00 +16°C° 0 mm 3 m/s 731 mmHg 34%
    12:00 +17°C° 0 mm 3 m/s 730 mmHg 34%
    13:00 +17°C° 0 mm 4 m/s 730 mmHg 35%
    14:00 +18°C° 0 mm 4 m/s 729 mmHg 36%
    15:00 +18°C° 0 mm 4 m/s 729 mmHg 39%
    16:00 +18°C° 0 mm 3 m/s 728 mmHg 42%
    17:00 +17°C° 0 mm 3 m/s 728 mmHg 45%
    18:00 +14°C° 0 mm 3 m/s 728 mmHg 52%
    19:00 +14°C° 0 mm 2 m/s 728 mmHg 58%
    20:00 +12°C° 0 mm 2 m/s 728 mmHg 65%
    21:00 +11°C° 0 mm 1 m/s 728 mmHg 67%
    22:00 +11°C° 0 mm 1 m/s 728 mmHg 70%
    23:00 +10°C° 0 mm 1 m/s 728 mmHg 73%

    26 Mars, Mardi

    Heure Température Précipitation Vent Pression Humidité
    00:00 +10°C° 0 mm 1 m/s 728 mmHg 74%
    01:00 +8°C° 0 mm 2 m/s 728 mmHg 74%
    02:00 +8°C° 0 mm 2 m/s 728 mmHg 75%
    03:00 +7°C° 0 mm 3 m/s 727 mmHg 75%
    04:00 +7°C° 0 mm 3 m/s 727 mmHg 74%
    05:00 +6°C° 0 mm 4 m/s 727 mmHg 74%
    06:00 +6°C° 0 mm 5 m/s 727 mmHg 72%
    07:00 +7°C° 0 mm 6 m/s 728 mmHg 70%
    08:00 +6°C° 0 mm 7 m/s 728 mmHg 68%
    09:00 +6°C° 0.2 mm 7 m/s 728 mmHg 67%
    10:00 +6°C° 0.2 mm 7 m/s 728 mmHg 67%
    11:00 +6°C° 0.2 mm 7 m/s 729 mmHg 66%
    12:00 +6°C° 0.8 mm 7 m/s 729 mmHg 70%
    13:00 +6°C° 0.8 mm 7 m/s 729 mmHg 73%
    14:00 +7°C° 0.8 mm 6 m/s 729 mmHg 76%
    15:00 +5°C° 0.4 mm 6 m/s 729 mmHg 76%
    16:00 +5°C° 0.4 mm 6 m/s 730 mmHg 76%
    17:00 +4°C° 0.4 mm 6 m/s 730 mmHg 75%
    18:00 +3°C° 0 mm 5 m/s 730 mmHg 78%
    19:00 +4°C° 0 mm 4 m/s 731 mmHg 80%
    20:00 +3°C° 0 mm 4 m/s 731 mmHg 83%
    21:00 +3°C° 0 mm 4 m/s 731 mmHg 84%
    22:00 +3°C° 0 mm 4 m/s 732 mmHg 85%
    23:00 +1°C° 0 mm 4 m/s 732 mmHg 87%

    27 Mars, Mercredi

    Heure Température Précipitation Vent Pression Humidité
    00:00 +3°C° 0 mm 4 m/s 732 mmHg 87%
    01:00 +3°C° 0 mm 4 m/s 732 mmHg 87%
    02:00 +3°C° 0 mm 4 m/s 733 mmHg 88%
    03:00 +3°C° 0.1 mm 4 m/s 733 mmHg 88%
    04:00 +2°C° 0.1 mm 5 m/s 733 mmHg 89%
    05:00 +2°C° 0.1 mm 5 m/s 733 mmHg 89%
    06:00 +2°C° 0.2 mm 5 m/s 734 mmHg 89%
    07:00 +2°C° 0.2 mm 5 m/s 734 mmHg 88%
    08:00 +3°C° 0.2 mm 5 m/s 735 mmHg 88%
    09:00 +3°C° 0.2 mm 6 m/s 735 mmHg 85%
    10:00 +3°C° 0.2 mm 6 m/s 735 mmHg 83%
    11:00 +3°C° 0.2 mm 6 m/s 736 mmHg 81%
    12:00 +4°C° 0.1 mm 6 m/s 736 mmHg 78%
    13:00 +5°C° 0.1 mm 6 m/s 736 mmHg 76%
    14:00 +5°C° 0.1 mm 6 m/s 736 mmHg 74%
    15:00 +5°C° 0.1 mm 6 m/s 736 mmHg 76%
    16:00 +4°C° 0.1 mm 6 m/s 736 mmHg 79%
    17:00 +4°C° 0.1 mm 6 m/s 736 mmHg 82%
    18:00 +3°C° 0.1 mm 6 m/s 737 mmHg 82%
    19:00 +3°C° 0.1 mm 5 m/s 737 mmHg 82%
    20:00 +4°C° 0.1 mm 4 m/s 737 mmHg 83%
    21:00 +3°C° 0 mm 4 m/s 737 mmHg 84%
    22:00 +3°C° 0 mm 3 m/s 737 mmHg 84%
    23:00 +3°C° 0 mm 2 m/s 737 mmHg 85%
    Voir plus